Hillsdale, MI

3:55 PM EDT on August 19, 2017 (GMT -0400)
Hillsdale Municipal

Weather History for KJYM - March, 2013

Change the Weather History Date:

Thursday, March 21, 2013

  Actual Average Record
Temperature  
Mean Temperature 22 °F -  
Max Temperature 30 °F 45 °F 84 °F (2012)
Min Temperature 15 °F 26 °F 8 °F (1965)
Degree Days  
Heating Degree Days 42    
Moisture  
Dew Point 18 °F    
Average Humidity 81    
Maximum Humidity 90    
Minimum Humidity 67    
Precipitation  
Precipitation 0.00 in - - ()
Sea Level Pressure  
Sea Level Pressure 29.89 in    
Wind  
Wind Speed 10 mph (West)    
Max Wind Speed 20 mph    
Max Gust Speed 25 mph    
Visibility 8 miles    
Events Snow    
Averages and records for this station are not official NWS values.
T = Trace of Precipitation, MM = Missing Value Source: NWS Daily Summary

Daily Weather History Graph

Daily Weather History Graph

Search for Another Location

Airport or City:

Trip Planner

Search our weather history database for the weather conditions in past years. The results will help you decide how hot, cold, wet, or windy it might be!

Date:

Astronomy

Mar. 21, 2013 Rise Set
Actual Time 7:39 AM EDT 7:51 PM EDT
Civil Twilight 7:11 AM EDT 8:19 PM EDT
Nautical Twilight 6:39 AM EDT 8:52 PM EDT
Astronomical Twilight 6:05 AM EDT 9:25 PM EDT
Moon 2:16 PM EDT (3/21) 4:05 AM EDT (3/21)
Length of Visible Light 13h 08m
Length of Day
12h 12m
Waxing Gibbous, 68% of the Moon is Illuminated
Mar 21
Waxing Gibbous
Mar 27
Full
Apr 3
Last Quarter
Apr 10
New
Apr 18
First Quarter

Hourly Weather History & Observations

Time (EDT) Temp. Windchill Dew Point Humidity Pressure Visibility Wind Dir Wind Speed Gust Speed Precip Events Conditions
12:14 AM 16.2 °F 5.5 °F 12.7 °F 86% 29.91 in 10.0 mi West 8.1 mph - N/A   Clear
12:35 AM 15.6 °F 5.9 °F 12.6 °F 88% 29.91 in 10.0 mi West 6.9 mph - N/A Snow Light Snow
12:54 AM 15.6 °F 5.9 °F 12.7 °F 88% 29.90 in 10.0 mi West 6.9 mph - N/A   Scattered Clouds
1:35 AM 15.3 °F 6.6 °F 12.4 °F 88% 29.89 in 10.0 mi West 5.8 mph - N/A   Clear
2:15 AM 15.1 °F 6.4 °F 12.4 °F 89% 29.89 in 10.0 mi West 5.8 mph - N/A   Clear
2:35 AM 15.1 °F 6.4 °F 12.6 °F 90% 29.89 in 10.0 mi West 5.8 mph - N/A   Clear
2:54 AM 15.1 °F 7.7 °F 12.4 °F 89% 29.89 in 10.0 mi West 4.6 mph - N/A   Clear
3:15 AM 15.1 °F 5.2 °F 12.4 °F 89% 29.89 in 10.0 mi West 6.9 mph - N/A   Scattered Clouds
3:34 AM 15.3 °F 5.4 °F 12.6 °F 89% 29.88 in 10.0 mi West 6.9 mph - N/A   Mostly Cloudy
3:55 AM 15.6 °F 7.0 °F 13.1 °F 90% 29.88 in 10.0 mi West 5.8 mph - N/A   Overcast
4:14 AM 16.2 °F 5.5 °F 13.6 °F 90% 29.87 in 10.0 mi West 8.1 mph - N/A   Overcast
4:34 AM 16.2 °F 6.5 °F 13.6 °F 90% 29.87 in 7.0 mi West 6.9 mph - N/A   Overcast
4:55 AM 16.2 °F 7.6 °F 13.5 °F 89% 29.86 in 7.0 mi West 5.8 mph - N/A   Overcast
5:14 AM 16.2 °F 6.5 °F 13.3 °F 88% 29.86 in 10.0 mi West 6.9 mph - N/A   Overcast
5:34 AM 16.2 °F 6.5 °F 13.5 °F 89% 29.86 in 5.0 mi West 6.9 mph - N/A Snow Light Snow
5:55 AM 16.5 °F 6.0 °F 13.8 °F 89% 29.86 in 5.0 mi West 8.1 mph - N/A Snow Light Snow
6:14 AM 16.5 °F 5.1 °F 13.6 °F 88% 29.86 in 5.0 mi West 9.2 mph - N/A Snow Light Snow
6:35 AM 16.9 °F 5.5 °F 13.8 °F 88% 29.86 in 4.0 mi West 9.2 mph - N/A Snow Light Snow
6:55 AM 16.3 °F 5.7 °F 13.5 °F 88% 29.86 in 7.0 mi West 8.1 mph - N/A Snow Light Snow
7:14 AM 16.7 °F 7.2 °F 13.8 °F 88% 29.86 in 10.0 mi West 6.9 mph - N/A   Mostly Cloudy
7:35 AM 17.1 °F 6.6 °F 14.5 °F 90% 29.86 in 10.0 mi West 8.1 mph - N/A   Mostly Cloudy
7:55 AM 17.1 °F 5.8 °F 14.5 °F 90% 29.86 in 7.0 mi West 9.2 mph - N/A Snow Light Snow
8:14 AM 17.8 °F 6.6 °F 15.1 °F 89% 29.86 in 10.0 mi West 9.2 mph - N/A Snow Light Snow
8:54 AM 19.0 °F 8.2 °F 16.3 °F 89% 29.86 in 7.0 mi West 9.2 mph - N/A Snow Light Snow
9:14 AM 19.8 °F 8.3 °F 16.9 °F 89% 29.86 in 1.5 mi West 10.4 mph - N/A Snow Light Snow
9:35 AM 20.8 °F 9.0 °F 17.6 °F 87% 29.86 in 1.8 mi West 11.5 mph 16.1 mph N/A Snow Light Snow
9:54 AM 21.6 °F 7.3 °F 17.8 °F 85% 29.86 in 2.5 mi West 17.3 mph 21.9 mph N/A Snow Light Snow
10:15 AM 22.5 °F 11.1 °F 18.7 °F 85% 29.86 in 4.0 mi WNW 11.5 mph - N/A Snow Light Snow
10:34 AM 23.2 °F 10.8 °F 18.7 °F 83% 29.86 in 10.0 mi WNW 13.8 mph 20.7 mph N/A Snow Light Snow
10:54 AM 24.3 °F 12.7 °F 19.4 °F 82% 29.87 in 10.0 mi WNW 12.7 mph 20.7 mph N/A   Overcast
11:15 AM 25.2 °F 15.1 °F 19.8 °F 80% 29.87 in 10.0 mi WNW 10.4 mph 17.3 mph N/A   Overcast
11:34 AM 26.1 °F 13.1 °F 20.3 °F 79% 29.88 in 10.0 mi WNW 17.3 mph - N/A   Overcast
11:54 AM 25.9 °F 13.8 °F 19.8 °F 78% 29.88 in 10.0 mi WNW 15.0 mph - N/A   Overcast
12:15 PM 26.8 °F 14.5 °F 20.1 °F 76% 29.88 in 10.0 mi WNW 16.1 mph - N/A   Overcast
12:34 PM 27.1 °F 15.9 °F 19.9 °F 74% 29.89 in 10.0 mi WNW 13.8 mph - N/A   Overcast
12:55 PM 27.1 °F 15.4 °F 19.4 °F 73% 29.89 in 10.0 mi NW 15.0 mph - N/A   Overcast
1:14 PM 27.5 °F 16.8 °F 19.4 °F 72% 29.89 in 10.0 mi WNW 12.7 mph 18.4 mph N/A   Overcast
1:34 PM 28.0 °F 16.1 °F 18.5 °F 67% 29.89 in 10.0 mi WNW 16.1 mph - N/A   Overcast
1:55 PM 28.0 °F 15.7 °F 19.0 °F 69% 29.89 in 10.0 mi West 17.3 mph - N/A Snow Light Snow
2:14 PM 28.6 °F 16.8 °F 19.9 °F 70% 29.88 in 7.0 mi West 16.1 mph 21.9 mph N/A Snow Light Snow
2:35 PM 28.9 °F 17.3 °F 20.1 °F 70% 29.88 in 10.0 mi West 16.1 mph 24.2 mph N/A Snow Light Snow
2:55 PM 29.5 °F 18.0 °F 20.7 °F 70% 29.88 in 7.0 mi WNW 16.1 mph 23.0 mph N/A Snow Light Snow
3:14 PM 29.8 °F 17.7 °F 22.5 °F 74% 29.88 in 7.0 mi West 18.4 mph 25.3 mph N/A Snow Light Snow
3:35 PM 30.2 °F 18.5 °F 23.0 °F 75% 29.87 in 10.0 mi West 17.3 mph 23.0 mph N/A Snow Light Snow
3:55 PM 30.4 °F 19.1 °F 21.7 °F 70% 29.87 in 10.0 mi WNW 16.1 mph 21.9 mph N/A   Overcast
4:14 PM 29.5 °F 19.9 °F 22.1 °F 74% 29.88 in 10.0 mi WNW 11.5 mph 23.0 mph N/A   Overcast
4:35 PM 28.6 °F 15.6 °F 22.5 °F 78% 29.88 in 4.0 mi West 19.6 mph 24.2 mph N/A Snow Light Snow
4:54 PM 28.6 °F 16.0 °F 22.5 °F 78% 29.88 in 5.0 mi West 18.4 mph 25.3 mph N/A Snow Light Snow
5:14 PM 28.2 °F 17.2 °F 23.4 °F 82% 29.89 in 5.0 mi West 13.8 mph 21.9 mph N/A Snow Light Snow
5:35 PM 27.9 °F 15.9 °F 22.6 °F 81% 29.89 in 4.0 mi West 16.1 mph 23.0 mph N/A Snow Light Snow
5:54 PM 27.3 °F 14.8 °F 22.5 °F 82% 29.89 in 4.0 mi West 17.3 mph 23.0 mph N/A Snow Light Snow
6:15 PM 27.3 °F 15.6 °F 22.5 °F 82% 29.89 in 7.0 mi WNW 15.0 mph 18.4 mph N/A Snow Light Snow
6:35 PM 27.7 °F 15.2 °F 22.1 °F 80% 29.90 in 10.0 mi West 17.3 mph 21.9 mph N/A Snow Light Snow
6:54 PM 27.3 °F 15.6 °F 21.2 °F 78% 29.90 in 7.0 mi West 15.0 mph 24.2 mph N/A Snow Light Snow
7:15 PM 27.0 °F 16.1 °F 21.0 °F 78% 29.90 in 7.0 mi West 12.7 mph 19.6 mph N/A Snow Light Snow
7:34 PM 27.0 °F 15.2 °F 20.8 °F 78% 29.91 in 7.0 mi West 15.0 mph 21.9 mph N/A Snow Light Snow
7:54 PM 27.0 °F 15.2 °F 20.8 °F 78% 29.91 in 5.0 mi West 15.0 mph 20.7 mph N/A Snow Light Snow
8:15 PM 26.6 °F 14.7 °F 19.9 °F 76% 29.91 in 10.0 mi West 15.0 mph - N/A Snow Light Snow
8:34 PM 26.8 °F 16.5 °F 19.2 °F 73% 29.91 in 10.0 mi West 11.5 mph 19.6 mph N/A Snow Light Snow
8:54 PM 26.4 °F 15.5 °F 19.0 °F 74% 29.91 in 10.0 mi WNW 12.7 mph - N/A Snow Light Snow
9:15 PM 26.2 °F 15.8 °F 18.9 °F 74% 29.92 in 10.0 mi WNW 11.5 mph 21.9 mph N/A Snow Light Snow
9:34 PM 26.1 °F 14.0 °F 18.3 °F 73% 29.92 in 10.0 mi WNW 15.0 mph - N/A   Overcast
9:54 PM 26.1 °F 14.0 °F 17.8 °F 71% 29.92 in 10.0 mi WNW 15.0 mph - N/A   Overcast
10:15 PM 26.1 °F 13.6 °F 17.2 °F 69% 29.92 in 10.0 mi WNW 16.1 mph - N/A   Overcast
10:34 PM 25.7 °F 14.6 °F 17.1 °F 70% 29.93 in 10.0 mi WNW 12.7 mph 19.6 mph N/A   Overcast
10:55 PM 25.2 °F 14.4 °F 17.2 °F 72% 29.93 in 10.0 mi WNW 11.5 mph 19.6 mph N/A   Overcast
11:15 PM 25.3 °F 15.3 °F 18.0 °F 74% 29.93 in 10.0 mi WNW 10.4 mph - N/A Snow Light Snow
11:34 PM 25.2 °F 14.4 °F 18.0 °F 74% 29.93 in 10.0 mi WNW 11.5 mph 16.1 mph N/A Snow Light Snow
11:55 PM 25.2 °F 15.1 °F 18.3 °F 75% 29.93 in 10.0 mi NW 10.4 mph - N/A Snow Light Snow